Back to catalog

YAOGAN-31 C

AliveMilitaryLEO
NORAD 43277·PAYLOAD·🇨🇳 China

Launched Apr 10, 2018 from Jiuquan Satellite Launch Center

Loading…

Next Passes (next 24 hours)

TLE

FreshSource: Space-Track

Epoch: Sep 14, 2026, 15:04 UTC

1 43277U 18034C   26257.62816866  .00000013  00000-0  13759-3 0  9996
2 43277  63.3936 220.5097 0283368   7.3864 353.1204 13.45450101414278

Track YAOGAN-31 C in real time with AllMySat

Download on the App Store